Location: Arborea
(39.7744°N, 8.5819°E)
Time: 07:03:15
(UTC+00:00)

Spot 2 - Pass Details

Date: 24 October 2021
Orbit: 570 x 772 km, 98.7° (Epoch: 02 December)

Event Time Altitude Azimuth Distance (km) Brightness Sun altitude
Rises 17:42:57 0° 152° (SSE) 2,785 7.2 -14.0°
Reaches altitude 10° 17:45:05 10° 147° (SSE) 1,907 6.3 -14.4°
Maximum altitude 17:49:04 50° 72° (ENE) 775 4.1 -15.1°
Drops below altitude 10° 17:53:17 10° 357° (N) 2,013 6.7 -16.0°
Sets 17:55:35 0° 352° (N) 2,958 7.6 -16.4°
